AirNav   Everest Fuels
 
 533 users online  

NJ69 Ideal Air Strip
Hammonton, New Jersey, USA

GOING TO HAMMONTON?


FAA INFORMATION EFFECTIVE 16 JULY 2020

Location

FAA Identifier: NJ69
Lat/Long: 39-39-30.4200N 074-48-08.5850W
39-39.507000N 074-48.143083W
39.6584500,-74.8023847
(estimated)
Elevation: 80 ft. / 24 m (estimated)
Variation: 12W (1985)
From city: 2 miles N of HAMMONTON, NJ
Time zone: UTC -4 (UTC -5 during Standard Time)
Zip code: 08037

Airport Operations

Airport use: Private use. Permission required prior to landing
Activation date: 11/1971
Control tower: no
ARTCC: WASHINGTON CENTER
FSS: MILLVILLE FLIGHT SERVICE STATION
Attendance: UNATNDD
Wind indicator: no
Segmented circle: no

Airport Communications

WX AWOS-AV at N81 (2.1 nm E): 122.7
WX ASOS at ACY (16 nm SE): PHONE 609-272-9311
WX ASOS at VAY (17 nm N): 119.325 (609-267-1176)

Nearby radio navigation aids

VOR radial/distance  VOR name  Freq  Var
VCNr056/10.5CEDAR LAKE VOR/DME115.2010W
ACYr329/16.0ATLANTIC CITY VORTAC117.1510W
CYNr251/19.6COYLE VORTAC113.4010W
GXUr216/23.1MC GUIRE VORTAC110.6012W
OODr097/23.2WOODSTOWN VORTAC112.8010W
SIEr009/33.8SEA ISLE VORTAC114.8009W
RBVr213/35.6ROBBINSVILLE VORTAC113.8010W
ARDr182/36.0YARDLEY VOR/DME108.2010W
DQOr102/37.2DUPONT VORTAC114.0010W

 
NDB name  Hdg/Dist  Freq  Var  ID
RAINBOW058/21.136311WRNB .-. -. -...
LAKEHURST234/31.639611WNEL -. . .-..
AMBLER154/35.827512WING .. -. --.

Airport Services

Airframe service: NONE
Powerplant service: NONE

Runway Information

Runway NE/SW

Dimensions: 1700 x 150 ft. / 518 x 46 m
Surface: turf
RUNWAY NE  RUNWAY SW
Traffic pattern: leftleft
Obstructions: bldgs wiresnone

Airport Ownership and Management from official FAA records

Ownership: Privately-owned
Owner: 1303 ASSOCIATES, LLC
2760 GLASSBORO-CROSS KEYS RD
GLASSBORO, NJ 08028
Phone 856-863-6904
Manager: CHRIS FAZZIO
2760 GLASSBORO-CROSS KEYS RD
GLASSBORO, NJ 08028
Phone 609-561-2712
609-820-7534

Additional Remarks

PRIVATE FACILITY LICENSED BY STATE FOR 1 PLANE 1 PILOT
FOR CD CTC WASHINGTON ARTCC AT 703-771-3587.

Instrument Procedures

There are no published instrument procedures at NJ69.

Some nearby airports with instrument procedures:

N81 - Hammonton Municipal Airport (2 nm E)
19N - Camden County Airport (10 nm NW)
17N - Cross Keys Airport (11 nm W)
29N - Kroelinger Airport (14 nm SW)
KACY - Atlantic City International Airport (16 nm SE)
N14 - Flying W Airport (17 nm N)
KVAY - South Jersey Regional Airport (17 nm N)
 
Loc | Ops | Rwys | IFR | FBO | Links
Com | Nav | Svcs | Stats | Notes
Area around NJ69 (Ideal Air Strip)
 
Road maps at: MapQuest Bing Google
 
Aerial photo
No photo
 
Sectional chart

 
Airport distance calculator
Flying to Ideal Air Strip? Find the distance to fly.

From to NJ69

Sunrise and sunset
Times for 12-Aug-2020
 Local
(UTC-4)
 Zulu
(UTC)
Morning civil twilight05:4109:41
Sunrise06:1010:10
Sunset19:5823:58
Evening civil twilight20:2700:27

Current date and time
Zulu (UTC)  12-Aug-2020 05:20:19
Local (UTC-4)  12-Aug-2020 01:20:19
 
METAR
KACY 
15nm SE 
120454Z 18005KT 7SM CLR 26/23 A2999 RMK AO2 SLP153 T02560233 403110233
KVAY 
17nm N 
ASOS 119.325 609-267-1176
120454Z AUTO 00000KT 7SM CLR 24/24 A2997 RMK AO2 SLP146 T02440239 403110222
KMIV 
22nm SW 
120454Z AUTO 20003KT 10SM CLR 26/24 A2998 RMK AO2 SLP150 T02560239 403110217
KPHL 
23nm NW 
120454Z 20005KT 10SM FEW280 26/24 A2997 RMK AO2 SLP148 T02610244 403220233
KWRI 
24nm NE 
120456Z AUTO 22005KT 10SM CLR 24/24 A2997 RMK AO2 SLP147 T02400235 403160218 $
KPNE 
27nm N 
120454Z AUTO VRB03KT 10SM CLR 26/24 A2998 RMK AO2 SLP149 T02610244 403170233
KMJX 
29nm NE 
AWOS-3 119.875 732-244-4450
120456Z AUTO 21003KT 10SM CLR 24/23 A2999 RMK AO2 SLP157 T02390228 403220217
KNEL 
30nm NE 
120015Z COR 10SM 00000KT CLR 28/22 A2993 RMK AO2 SLPNO 60152 55003 $
TAF
KACY 
15nm SE 
111726Z 1118/1218 16011KT P6SM SCT030 FM112300 17006KT P6SM FEW030 SCT200 FM120600 19004KT 4SM BR FEW003 SCT050 TEMPO 1208/1211 2SM BR SCT003 FM121300 19007KT P6SM SCT050
NOTAMs
Click for the latest NOTAMs
NOTAMs are issued by the DoD/FAA and will open in a separate window not controlled by AirNav.

 

 
 

Would you like to see your business listed on this page?

 If your business provides an interesting product or service to pilots, flight crews, aircraft, or users of the Ideal Air Strip, you should consider listing it here.  To start the listing process, click on the button below
 
Add a business
 

Other Pages about Ideal Air Strip

Update a link
 
Copyright © AirNav, LLC. All rights reserved. Privacy Policy  Contact